01/10/2019,	00:00:00,	22.664,	33.700,	1023.975,	117.335,	3.934,	0.299,	0.081,	3.699,	0.253,	0.056,	0.039,	741.408,	1080.242,	1583.754,	220.525,	3.994,	0.929,	3.860,	0.827,	5.310,	0.896,	5.647,	0.992,	0.898,	0.414,	0.769,	0.344,	0.849,	0.419,	0.947,	0.393,	24.702,	192.879,	176.689,	189.133,	544.260,	186.100,	190.243,	177.493,	172.916
01/10/2019,	00:15:00,	23.598,	33.700,	1023.907,	116.976,	3.940,	0.301,	0.090,	3.812,	0.236,	0.066,	0.046,	740.627,	1157.344,	1661.720,	218.493,	4.072,	0.877,	4.041,	0.828,	5.318,	0.949,	5.672,	0.973,	0.903,	0.406,	0.754,	0.326,	0.847,	0.402,	1.027,	0.427,	24.905,	193.229,	176.120,	189.351,	622.869,	185.595,	189.584,	176.627,	172.760
01/10/2019,	00:30:00,	23.380,	33.700,	1026.089,	116.402,	3.986,	0.319,	0.080,	3.718,	0.233,	0.051,	0.033,	738.850,	1155.611,	1657.942,	218.952,	4.062,	0.899,	3.953,	0.869,	5.224,	0.823,	5.648,	1.019,	0.987,	0.431,	0.788,	0.360,	0.812,	0.377,	0.962,	0.420,	24.742,	192.088,	176.145,	187.837,	621.213,	186.268,	190.204,	176.908,	171.927
01/10/2019,	00:45:00,	24.196,	33.700,	1024.204,	116.694,	4.033,	0.321,	0.068,	3.858,	0.262,	0.060,	0.036,	739.075,	1155.633,	1657.223,	219.786,	3.948,	0.906,	4.065,	0.940,	5.305,	0.922,	5.717,	0.963,	0.969,	0.407,	0.842,	0.384,	0.893,	0.406,	0.993,	0.416,	24.498,	192.671,	175.773,	187.372,	620.695,	185.650,	190.312,	177.642,	172.896
01/10/2019,	01:00:00,	24.210,	33.700,	1025.440,	116.664,	3.867,	0.327,	0.096,	3.700,	0.276,	0.080,	0.051,	740.596,	1155.626,	1658.683,	220.023,	3.973,	0.858,	3.996,	0.892,	5.209,	0.878,	5.727,	1.012,	0.980,	0.427,	0.757,	0.367,	0.821,	0.379,	1.030,	0.463,	24.679,	192.250,	177.386,	189.263,	619.454,	186.294,	190.241,	176.934,	172.427
01/10/2019,	01:15:00,	22.755,	33.700,	1023.682,	117.377,	3.935,	0.303,	0.069,	3.707,	0.260,	0.063,	0.030,	741.515,	1154.069,	1657.352,	220.292,	4.089,	0.833,	4.088,	0.854,	5.368,	0.882,	5.660,	1.006,	0.951,	0.410,	0.783,	0.329,	0.829,	0.383,	1.016,	0.422,	24.907,	191.841,	176.597,	188.516,	617.180,	187.470,	191.168,	177.850,	172.995
01/10/2019,	01:30:00,	25.092,	33.700,	1024.673,	117.121,	4.053,	0.339,	0.086,	3.798,	0.248,	0.051,	0.033,	743.940,	1152.385,	1657.814,	220.752,	4.037,	0.912,	4.090,	0.861,	5.253,	0.922,	5.735,	1.012,	0.943,	0.421,	0.760,	0.340,	0.886,	0.403,	1.043,	0.439,	24.832,	192.268,	176.756,	189.534,	616.724,	188.201,	191.080,	178.245,	171.780
01/10/2019,	01:45:00,	23.363,	33.700,	1022.900,	117.486,	3.988,	0.316,	0.079,	3.791,	0.262,	0.070,	0.033,	741.057,	1153.391,	1656.196,	220.608,	3.995,	0.883,	4.011,	0.836,	5.321,	0.938,	5.602,	0.963,	0.987,	0.429,	0.818,	0.373,	0.853,	0.390,	0.956,	0.396,	24.939,	191.561,	176.464,	188.697,	617.245,	186.753,	189.976,	178.259,	173.664
01/10/2019,	02:00:00,	24.406,	33.700,	1023.216,	116.495,	3.907,	0.333,	0.077,	3.656,	0.258,	0.067,	0.042,	742.603,	1148.494,	1652.683,	220.837,	3.958,	0.883,	4.048,	0.858,	5.173,	0.898,	5.815,	1.008,	0.958,	0.426,	0.771,	0.362,	0.809,	0.417,	1.029,	0.442,	24.807,	193.167,	177.399,	189.228,	613.369,	186.715,	189.105,	177.657,	172.458
01/10/2019,	02:15:00,	24.651,	33.700,	1023.308,	117.141,	3.960,	0.294,	0.071,	3.710,	0.248,	0.058,	0.034,	740.630,	1147.121,	1650.424,	219.595,	4.113,	0.910,	4.072,	0.822,	5.229,	0.909,	5.582,	0.969,	0.942,	0.394,	0.758,	0.341,	0.863,	0.399,	1.001,	0.422,	24.831,	191.941,	177.194,	188.769,	611.339,	186.614,	189.298,	177.480,	173.166
01/10/2019,	02:30:00,	23.055,	33.700,	1024.204,	117.232,	3.850,	0.334,	0.093,	3.781,	0.287,	0.077,	0.051,	742.253,	1142.641,	1646.992,	220.010,	3.977,	0.883,	4.030,	0.839,	5.400,	0.922,	5.731,	0.991,	1.013,	0.427,	0.821,	0.358,	0.857,	0.429,	1.061,	0.448,	24.766,	191.977,	176.212,	190.024,	607.412,	186.246,	189.958,	178.126,	173.029
01/10/2019,	02:45:00,	24.895,	33.700,	1023.727,	117.336,	3.898,	0.297,	0.064,	3.275,	0.257,	0.061,	0.038,	743.696,	733.115,	1239.176,	220.313,	4.028,	0.874,	3.949,	0.838,	5.219,	0.882,	5.562,	0.993,	0.961,	0.416,	0.756,	0.346,	0.833,	0.389,	0.850,	0.397,	24.791,	192.317,	176.070,	189.253,	195.873,	187.552,	191.679,	178.721,	172.920
01/10/2019,	03:00:00,	22.400,	33.700,	1022.793,	116.796,	3.997,	0.334,	0.104,	3.218,	0.308,	0.076,	0.053,	743.613,	734.717,	1240.328,	220.636,	4.047,	0.896,	3.893,	0.867,	5.225,	0.888,	5.662,	0.983,	0.962,	0.427,	0.807,	0.349,	0.869,	0.410,	0.826,	0.381,	24.701,	193.357,	176.499,	189.920,	197.420,	187.307,	191.672,	177.320,	172.541
01/10/2019,	03:15:00,	24.654,	33.700,	1022.820,	117.218,	3.890,	0.330,	0.087,	3.208,	0.283,	0.070,	0.048,	742.736,	734.195,	1238.933,	220.709,	4.040,	0.930,	3.795,	0.800,	5.278,	0.918,	5.527,	0.951,	0.958,	0.410,	0.789,	0.353,	0.881,	0.431,	0.891,	0.389,	24.989,	192.220,	176.434,	188.887,	197.337,	186.556,	191.298,	179.242,	172.522
01/10/2019,	03:30:00,	22.446,	33.700,	1022.755,	116.464,	3.871,	0.300,	0.081,	3.287,	0.256,	0.057,	0.041,	743.494,	736.798,	1242.811,	219.942,	3.979,	0.879,	3.993,	0.784,	5.354,	0.886,	5.596,	0.956,	0.922,	0.393,	0.767,	0.346,	0.791,	0.369,	0.849,	0.379,	24.945,	192.468,	176.297,	189.324,	198.917,	187.684,	191.332,	178.132,	173.693
01/10/2019,	03:45:00,	23.515,	33.700,	1023.518,	117.131,	3.942,	0.390,	0.098,	3.290,	0.286,	0.077,	0.050,	743.361,	736.477,	1242.280,	220.188,	4.050,	0.924,	4.006,	0.878,	5.380,	0.940,	5.481,	0.977,	0.978,	0.442,	0.909,	0.426,	0.817,	0.418,	0.881,	0.433,	24.058,	192.541,	176.753,	189.402,	197.870,	187.116,	192.288,	178.539,	173.020
01/10/2019,	04:00:00,	24.757,	33.700,	1022.816,	117.307,	3.943,	0.327,	0.083,	3.283,	0.264,	0.063,	0.038,	743.300,	737.679,	1242.842,	220.584,	4.027,	0.892,	3.859,	0.800,	5.398,	0.882,	5.617,	0.963,	0.963,	0.441,	0.787,	0.356,	0.837,	0.384,	0.872,	0.374,	23.722,	192.381,	176.890,	189.480,	199.316,	187.266,	191.450,	178.374,	173.442
01/10/2019,	04:15:00,	24.864,	33.700,	1022.564,	117.480,	4.035,	0.337,	0.092,	3.408,	0.288,	0.073,	0.046,	743.960,	740.372,	1245.066,	221.737,	4.086,	0.900,	3.916,	0.833,	5.444,	0.996,	5.556,	1.006,	1.053,	0.450,	0.840,	0.399,	0.851,	0.401,	0.883,	0.404,	23.365,	192.626,	177.141,	189.916,	200.609,	187.397,	192.457,	178.329,	173.739
01/10/2019,	04:30:00,	22.624,	33.700,	1021.832,	117.927,	3.846,	0.346,	0.090,	3.261,	0.266,	0.071,	0.050,	744.055,	738.339,	1244.110,	220.729,	3.913,	0.828,	3.850,	0.811,	5.480,	0.906,	5.665,	0.941,	0.934,	0.380,	0.778,	0.347,	0.806,	0.403,	0.830,	0.366,	23.692,	192.826,	176.873,	190.057,	198.488,	187.704,	192.358,	177.579,	174.044
01/10/2019,	04:45:00,	24.660,	33.700,	1022.339,	117.468,	3.948,	0.326,	0.093,	3.259,	0.272,	0.067,	0.044,	746.020,	739.571,	1247.216,	221.149,	3.964,	0.857,	3.908,	0.829,	5.231,	0.872,	5.440,	0.941,	0.950,	0.402,	0.781,	0.342,	0.857,	0.403,	0.866,	0.400,	23.481,	193.369,	177.767,	190.632,	199.251,	187.184,	191.948,	179.063,	174.015
01/10/2019,	05:00:00,	24.846,	33.700,	1021.137,	117.199,	3.991,	0.330,	0.078,	3.323,	0.244,	0.054,	0.038,	745.371,	740.314,	1246.788,	221.556,	3.987,	0.874,	3.869,	0.839,	5.306,	0.927,	5.539,	0.936,	0.900,	0.389,	0.770,	0.358,	0.883,	0.383,	0.911,	0.394,	23.392,	192.508,	176.766,	189.694,	200.727,	188.228,	192.064,	179.176,	174.217
01/10/2019,	05:15:00,	22.572,	33.700,	1020.496,	117.198,	4.028,	0.373,	0.108,	3.331,	0.277,	0.072,	0.049,	743.855,	738.945,	1244.639,	220.886,	3.963,	0.940,	3.864,	0.880,	5.382,	0.930,	5.651,	1.047,	1.001,	0.418,	0.819,	0.370,	0.866,	0.436,	0.891,	0.433,	23.264,	192.971,	177.322,	189.201,	199.475,	186.608,	191.911,	179.403,	173.751
01/10/2019,	05:30:00,	23.616,	33.700,	1021.564,	117.904,	3.918,	0.328,	0.086,	3.270,	0.263,	0.054,	0.040,	745.501,	738.766,	1245.698,	221.329,	3.948,	0.838,	3.886,	0.804,	5.244,	0.939,	5.383,	0.903,	1.010,	0.446,	0.801,	0.347,	0.852,	0.383,	0.879,	0.420,	23.420,	192.996,	177.549,	190.196,	199.432,	188.023,	191.642,	178.466,	173.558
01/10/2019,	05:45:00,	22.878,	33.700,	1020.794,	117.652,	4.072,	0.352,	0.106,	3.230,	0.280,	0.073,	0.058,	744.566,	740.373,	1245.932,	221.479,	4.075,	0.933,	4.017,	0.858,	5.289,	0.921,	5.650,	0.947,	1.037,	0.470,	0.798,	0.382,	0.865,	0.440,	0.866,	0.390,	23.856,	192.905,	177.712,	190.307,	200.686,	187.372,	191.257,	178.356,	174.134
01/10/2019,	06:00:00,	23.653,	33.700,	1019.035,	117.587,	4.051,	0.320,	0.071,	3.233,	0.256,	0.058,	0.032,	746.285,	739.822,	1246.958,	221.496,	4.121,	0.903,	3.977,	0.819,	5.379,	0.899,	5.497,	0.943,	0.947,	0.414,	0.813,	0.353,	0.859,	0.398,	0.836,	0.353,	23.756,	192.851,	177.667,	190.125,	199.040,	188.963,	191.762,	178.626,	174.712
01/10/2019,	06:15:00,	23.672,	33.700,	1018.936,	117.155,	3.953,	0.348,	0.099,	3.275,	0.273,	0.071,	0.047,	747.211,	739.628,	1247.901,	221.464,	4.059,	0.927,	3.923,	0.823,	5.288,	0.931,	5.615,	0.939,	1.011,	0.444,	0.790,	0.363,	0.881,	0.434,	0.843,	0.368,	23.621,	193.546,	177.974,	190.951,	198.519,	188.324,	192.355,	178.655,	174.216
01/10/2019,	06:30:00,	24.373,	33.700,	1021.099,	117.736,	4.023,	0.328,	0.091,	3.391,	0.310,	0.054,	0.036,	746.960,	737.311,	1245.059,	221.667,	4.008,	0.910,	3.999,	0.904,	5.389,	0.971,	5.686,	0.971,	0.966,	0.414,	0.763,	0.322,	0.844,	0.408,	0.931,	0.428,	23.734,	193.287,	177.385,	190.647,	199.218,	188.305,	190.516,	179.015,	173.749
01/10/2019,	06:45:00,	22.916,	33.700,	1020.573,	117.179,	4.073,	0.328,	0.078,	3.254,	0.279,	0.079,	0.043,	745.125,	737.702,	1244.210,	221.295,	3.990,	0.936,	3.860,	0.870,	5.295,	0.911,	5.632,	0.970,	0.979,	0.412,	0.795,	0.350,	0.859,	0.424,	0.880,	0.427,	23.445,	192.528,	176.602,	190.019,	198.563,	187.624,	191.403,	179.278,	174.576
01/10/2019,	07:00:00,	23.521,	33.700,	1018.963,	116.861,	4.157,	0.336,	0.084,	3.380,	0.289,	0.072,	0.046,	747.433,	739.213,	1247.413,	221.773,	4.066,	0.935,	3.907,	0.858,	5.360,	0.938,	5.608,	0.978,	0.998,	0.458,	0.815,	0.408,	0.878,	0.417,	0.878,	0.393,	23.430,	193.902,	178.066,	190.981,	198.310,	188.124,	192.116,	178.844,	174.267
01/10/2019,	07:15:00,	23.268,	33.700,	1019.218,	117.157,	3.970,	0.311,	0.077,	3.157,	0.257,	0.061,	0.039,	744.378,	739.428,	1245.430,	220.921,	3.968,	0.842,	3.963,	0.800,	5.329,	0.849,	5.418,	0.929,	0.941,	0.394,	0.832,	0.368,	0.788,	0.386,	0.872,	0.376,	23.551,	193.317,	177.307,	190.008,	199.470,	186.309,	191.918,	178.967,	174.036
01/10/2019,	07:30:00,	23.064,	33.700,	1019.321,	117.691,	3.924,	0.312,	0.094,	3.349,	0.282,	0.070,	0.050,	746.443,	740.556,	1247.452,	222.099,	4.104,	0.906,	3.910,	0.830,	5.387,	0.936,	5.535,	0.963,	1.000,	0.448,	0.760,	0.347,	0.857,	0.418,	0.837,	0.394,	23.604,	192.623,	177.607,	190.553,	199.651,	188.218,	193.011,	179.235,	173.814
01/10/2019,	07:45:00,	23.979,	33.700,	1019.047,	117.704,	4.163,	0.350,	0.100,	3.390,	0.269,	0.070,	0.050,	747.072,	739.079,	1246.880,	221.728,	4.097,	0.919,	4.020,	0.861,	5.410,	0.953,	5.538,	0.987,	0.994,	0.441,	0.788,	0.359,	0.869,	0.427,	0.902,	0.424,	23.384,	193.513,	177.001,	190.322,	199.304,	188.781,	191.980,	178.920,	174.334
01/10/2019,	08:00:00,	24.669,	33.700,	1020.920,	117.949,	3.933,	0.301,	0.087,	3.415,	0.264,	0.067,	0.039,	746.108,	737.895,	1244.552,	222.154,	4.008,	0.921,	3.967,	0.874,	5.231,	0.878,	5.549,	1.003,	0.999,	0.466,	0.816,	0.370,	0.828,	0.382,	0.872,	0.396,	23.572,	193.534,	177.645,	189.818,	199.326,	187.822,	191.012,	179.113,	173.509
01/10/2019,	08:15:00,	24.005,	33.700,	1021.111,	118.142,	4.064,	0.368,	0.091,	3.338,	0.299,	0.071,	0.046,	747.115,	738.241,	1246.063,	221.605,	4.083,	0.940,	4.063,	0.891,	5.331,	0.929,	5.807,	1.001,	0.968,	0.423,	0.822,	0.370,	0.909,	0.468,	0.888,	0.424,	23.709,	194.049,	177.536,	190.486,	198.641,	188.829,	191.727,	178.110,	173.864
01/10/2019,	08:30:00,	24.034,	33.700,	1018.879,	117.108,	3.936,	0.282,	0.072,	3.380,	0.259,	0.064,	0.042,	746.274,	736.514,	1244.246,	221.141,	4.169,	0.928,	3.875,	0.760,	5.232,	0.909,	5.531,	0.971,	0.988,	0.434,	0.749,	0.328,	0.817,	0.381,	0.837,	0.356,	23.647,	193.275,	177.278,	190.446,	198.440,	187.999,	190.299,	178.721,	174.038
01/10/2019,	08:45:00,	23.198,	33.700,	1020.451,	117.566,	4.007,	0.322,	0.081,	3.332,	0.264,	0.059,	0.037,	745.818,	739.919,	1246.085,	222.414,	4.086,	0.916,	3.928,	0.816,	5.199,	0.959,	5.441,	0.938,	1.018,	0.431,	0.818,	0.394,	0.852,	0.390,	0.827,	0.369,	23.661,	192.455,	177.982,	190.111,	199.442,	188.287,	192.364,	179.243,	173.607
01/10/2019,	09:00:00,	23.260,	33.700,	1020.245,	117.974,	4.032,	0.310,	0.079,	3.411,	0.252,	0.060,	0.039,	745.623,	736.776,	1243.572,	221.510,	3.947,	0.899,	3.955,	0.835,	5.322,	0.930,	5.520,	0.989,	0.951,	0.396,	0.784,	0.356,	0.846,	0.392,	0.915,	0.389,	23.499,	192.869,	177.683,	190.326,	198.001,	187.597,	190.746,	179.122,	173.918
01/10/2019,	09:15:00,	22.891,	33.700,	1020.042,	117.389,	4.041,	0.325,	0.096,	3.266,	0.263,	0.069,	0.042,	747.968,	737.318,	1246.043,	221.756,	4.086,	0.899,	3.986,	0.834,	5.394,	0.961,	5.498,	0.971,	0.957,	0.415,	0.828,	0.383,	0.848,	0.418,	0.887,	0.403,	23.340,	193.538,	176.881,	191.160,	198.246,	188.186,	191.932,	179.413,	173.690
01/10/2019,	09:30:00,	25.313,	33.700,	1020.649,	117.769,	4.037,	0.313,	0.108,	3.329,	0.249,	0.069,	0.049,	744.893,	735.559,	1241.797,	220.829,	4.120,	0.934,	3.995,	0.807,	5.438,	0.929,	5.633,	1.007,	1.014,	0.430,	0.834,	0.380,	0.890,	0.432,	0.908,	0.430,	23.669,	193.156,	177.022,	189.255,	197.571,	187.555,	190.537,	179.239,	173.931
01/10/2019,	09:45:00,	23.286,	33.700,	1020.870,	117.399,	3.956,	0.305,	0.083,	3.297,	0.266,	0.068,	0.041,	744.091,	734.248,	1240.826,	220.066,	4.057,	0.945,	3.967,	0.752,	5.316,	0.935,	5.496,	0.960,	0.975,	0.398,	0.774,	0.349,	0.896,	0.429,	0.837,	0.389,	23.286,	192.585,	177.070,	190.198,	197.137,	187.698,	189.914,	177.811,	173.601
01/10/2019,	10:00:00,	25.316,	33.700,	1020.889,	117.206,	3.989,	0.327,	0.078,	3.313,	0.246,	0.058,	0.044,	744.051,	734.160,	1239.907,	220.745,	4.147,	0.910,	4.019,	0.858,	5.245,	0.859,	5.512,	0.936,	0.920,	0.398,	0.797,	0.369,	0.815,	0.386,	0.935,	0.407,	23.703,	192.482,	176.589,	189.906,	197.176,	187.619,	190.313,	178.288,	173.545
01/10/2019,	10:15:00,	25.291,	33.700,	1021.549,	117.145,	4.004,	0.334,	0.097,	3.359,	0.270,	0.070,	0.048,	746.362,	735.629,	1243.478,	220.927,	4.087,	0.926,	4.016,	0.898,	5.364,	0.963,	5.559,	0.955,	0.971,	0.428,	0.820,	0.363,	0.888,	0.431,	0.891,	0.360,	23.677,	193.869,	176.755,	189.950,	197.562,	188.090,	191.079,	178.735,	173.769
01/10/2019,	10:30:00,	24.509,	33.700,	1019.836,	116.591,	4.021,	0.332,	0.098,	3.425,	0.281,	0.073,	0.050,	743.722,	734.597,	1239.578,	221.537,	4.018,	0.910,	4.017,	0.892,	5.246,	0.932,	5.409,	0.935,	0.999,	0.447,	0.795,	0.377,	0.861,	0.431,	0.885,	0.392,	23.356,	192.316,	177.159,	189.571,	198.060,	187.786,	189.714,	178.328,	173.239
01/10/2019,	10:45:00,	23.402,	33.700,	1021.057,	117.297,	3.930,	0.271,	0.081,	3.281,	0.258,	0.053,	0.039,	746.082,	735.979,	1242.854,	221.582,	4.128,	0.911,	3.998,	0.792,	5.276,	0.881,	5.503,	0.896,	0.976,	0.428,	0.768,	0.320,	0.809,	0.374,	0.855,	0.359,	23.401,	193.145,	176.898,	190.101,	197.344,	188.187,	191.212,	178.812,	173.962
01/10/2019,	11:00:00,	23.448,	33.700,	1021.503,	117.091,	4.081,	0.345,	0.089,	3.321,	0.273,	0.071,	0.047,	746.165,	736.912,	1244.904,	220.744,	4.114,	0.906,	3.851,	0.819,	5.433,	0.974,	5.473,	0.949,	1.006,	0.440,	0.845,	0.389,	0.849,	0.413,	0.842,	0.392,	23.394,	193.078,	176.355,	190.914,	198.829,	187.884,	191.524,	178.642,	173.691
01/10/2019,	11:15:00,	25.377,	33.700,	1020.882,	117.792,	4.016,	0.313,	0.079,	3.389,	0.288,	0.063,	0.043,	743.836,	737.156,	1242.116,	221.420,	4.077,	0.970,	4.010,	0.825,	5.346,	0.943,	5.527,	0.981,	0.958,	0.396,	0.766,	0.342,	0.851,	0.399,	0.845,	0.385,	23.580,	192.608,	176.495,	189.946,	198.569,	186.949,	191.528,	178.595,	174.112
01/10/2019,	11:30:00,	23.105,	33.700,	1021.423,	117.304,	3.949,	0.339,	0.091,	3.328,	0.298,	0.071,	0.048,	744.501,	737.278,	1243.277,	221.037,	4.071,	0.898,	3.995,	0.842,	5.397,	0.907,	5.452,	0.948,	0.951,	0.417,	0.811,	0.383,	0.826,	0.401,	0.861,	0.396,	23.890,	192.682,	176.617,	189.643,	198.429,	187.286,	191.694,	179.116,	174.036
01/10/2019,	11:45:00,	23.103,	33.700,	1021.503,	116.648,	4.007,	0.303,	0.093,	3.368,	0.265,	0.070,	0.049,	744.112,	739.192,	1245.157,	220.569,	4.029,	0.929,	3.963,	0.829,	5.390,	0.918,	5.623,	0.976,	1.016,	0.421,	0.782,	0.352,	0.851,	0.418,	0.869,	0.398,	23.540,	193.125,	177.049,	189.486,	201.213,	186.760,	191.610,	179.001,	172.846
01/10/2019,	12:00:00,	25.111,	33.700,	1021.885,	117.581,	4.074,	0.339,	0.084,	3.572,	0.260,	0.057,	0.037,	745.949,	981.361,	1488.044,	221.739,	4.068,	0.932,	3.924,	0.882,	5.343,	0.934,	5.595,	0.962,	0.987,	0.421,	0.772,	0.341,	0.886,	0.431,	0.967,	0.387,	23.271,	193.377,	176.748,	190.189,	442.835,	187.738,	191.151,	178.953,	174.377
01/10/2019,	12:15:00,	24.608,	33.700,	1020.153,	116.377,	4.058,	0.332,	0.081,	3.724,	0.240,	0.057,	0.038,	745.914,	994.520,	1501.513,	221.406,	4.095,	0.962,	4.041,	0.888,	5.350,	0.962,	5.527,	0.950,	0.942,	0.389,	0.757,	0.351,	0.852,	0.417,	1.018,	0.439,	23.493,	192.833,	177.351,	190.401,	455.393,	187.624,	191.291,	179.367,	174.350
01/10/2019,	12:30:00,	23.383,	33.700,	1019.939,	117.907,	4.001,	0.357,	0.077,	3.732,	0.253,	0.056,	0.039,	745.751,	1076.859,	1582.920,	221.911,	4.037,	0.878,	4.144,	0.936,	5.380,	0.928,	5.657,	1.006,	0.951,	0.411,	0.790,	0.371,	0.845,	0.408,	1.001,	0.426,	23.337,	193.387,	177.945,	190.545,	538.278,	187.309,	191.098,	178.750,	173.428
01/10/2019,	12:45:00,	25.417,	33.700,	1021.202,	117.335,	3.927,	0.323,	0.078,	3.805,	0.283,	0.054,	0.037,	745.868,	1078.596,	1585.125,	221.596,	4.074,	0.950,	4.022,	0.875,	5.352,	0.931,	5.768,	0.990,	0.966,	0.431,	0.796,	0.342,	0.776,	0.365,	0.988,	0.410,	23.806,	193.300,	178.670,	190.038,	537.853,	188.317,	193.043,	178.378,	173.002
01/10/2019,	13:00:00,	25.455,	33.700,	1020.859,	117.262,	3.976,	0.305,	0.079,	3.784,	0.253,	0.060,	0.036,	745.550,	1034.811,	1540.841,	221.720,	4.051,	0.876,	4.104,	0.911,	5.391,	0.930,	5.656,	1.007,	0.957,	0.406,	0.791,	0.351,	0.830,	0.368,	0.995,	0.440,	23.461,	192.684,	177.785,	190.050,	493.691,	188.080,	192.434,	178.949,	174.860
01/10/2019,	13:15:00,	24.464,	33.700,	1018.978,	117.123,	4.100,	0.316,	0.082,	3.748,	0.277,	0.058,	0.038,	749.641,	1045.039,	1555.196,	221.750,	4.136,	0.916,	4.048,	0.893,	5.265,	0.907,	5.711,	0.989,	0.966,	0.460,	0.827,	0.369,	0.856,	0.387,	0.976,	0.430,	24.150,	193.588,	178.310,	191.082,	503.722,	189.238,	192.191,	180.084,	174.733
01/10/2019,	13:30:00,	23.412,	33.700,	1019.093,	117.424,	4.045,	0.360,	0.089,	3.823,	0.296,	0.070,	0.049,	747.278,	1078.924,	1587.093,	221.659,	4.067,	0.930,	4.049,	0.926,	5.221,	0.938,	5.701,	1.021,	0.950,	0.438,	0.802,	0.391,	0.862,	0.432,	0.986,	0.420,	23.340,	193.218,	177.481,	190.996,	539.917,	188.658,	192.160,	178.748,	173.388
01/10/2019,	13:45:00,	23.325,	33.700,	1019.028,	117.554,	4.094,	0.339,	0.098,	3.892,	0.296,	0.068,	0.050,	749.549,	1082.707,	1591.845,	222.528,	4.121,	0.976,	4.085,	0.893,	5.370,	0.966,	5.862,	1.055,	0.997,	0.452,	0.828,	0.401,	0.876,	0.422,	1.022,	0.457,	23.492,	194.346,	178.870,	191.268,	540.499,	188.818,	193.157,	179.519,	174.265
01/10/2019,	14:00:00,	23.251,	33.700,	1018.978,	117.817,	4.140,	0.370,	0.103,	3.717,	0.281,	0.074,	0.058,	750.209,	1082.422,	1592.715,	222.150,	3.992,	0.877,	4.061,	0.900,	5.362,	0.945,	5.708,	1.016,	1.043,	0.439,	0.844,	0.390,	0.853,	0.411,	1.005,	0.438,	23.396,	194.397,	178.250,	191.664,	540.046,	188.260,	193.381,	180.318,	174.653
01/10/2019,	14:15:00,	23.186,	33.700,	1019.100,	117.526,	4.151,	0.339,	0.082,	3.858,	0.276,	0.057,	0.033,	747.939,	1080.734,	1589.433,	221.686,	4.033,	0.942,	4.098,	0.934,	5.383,	0.907,	5.614,	1.008,	0.988,	0.453,	0.830,	0.381,	0.817,	0.391,	0.955,	0.423,	23.411,	193.424,	178.665,	190.792,	538.924,	189.309,	192.917,	178.808,	174.243
01/10/2019,	14:30:00,	25.038,	33.700,	1018.902,	118.118,	3.984,	0.300,	0.076,	3.787,	0.263,	0.049,	0.033,	749.359,	1082.440,	1591.978,	221.867,	4.077,	0.919,	4.147,	0.874,	5.254,	0.889,	5.856,	1.020,	0.985,	0.418,	0.809,	0.356,	0.801,	0.370,	0.986,	0.436,	23.726,	193.934,	178.422,	190.679,	540.388,	189.256,	192.998,	179.696,	174.561
01/10/2019,	14:45:00,	23.521,	33.700,	1018.414,	117.066,	4.133,	0.365,	0.102,	3.815,	0.307,	0.080,	0.051,	749.867,	1084.235,	1593.590,	222.655,	4.145,	0.984,	4.173,	0.951,	5.376,	0.945,	5.792,	1.104,	0.987,	0.437,	0.811,	0.368,	0.879,	0.416,	1.063,	0.468,	23.533,	194.626,	178.183,	191.781,	542.941,	188.458,	192.477,	179.440,	174.657
01/10/2019,	15:00:00,	23.595,	33.700,	1017.937,	118.252,	4.099,	0.345,	0.089,	3.689,	0.279,	0.064,	0.041,	748.822,	1083.755,	1592.596,	222.059,	4.006,	0.901,	4.076,	0.837,	5.378,	0.911,	5.699,	1.011,	0.997,	0.436,	0.838,	0.372,	0.949,	0.425,	1.018,	0.457,	23.979,	194.923,	178.286,	190.882,	541.385,	187.975,	193.451,	179.421,	174.497
01/10/2019,	15:15:00,	23.421,	33.700,	1019.508,	116.906,	3.991,	0.301,	0.082,	3.656,	0.256,	0.064,	0.042,	748.380,	1079.205,	1587.961,	221.745,	4.034,	0.897,	4.080,	0.880,	5.273,	0.854,	5.778,	1.030,	0.964,	0.405,	0.817,	0.350,	0.858,	0.373,	0.978,	0.418,	23.486,	194.108,	177.818,	190.735,	538.446,	188.437,	192.485,	179.320,	174.293
01/10/2019,	15:30:00,	24.742,	33.700,	1017.868,	117.759,	4.070,	0.350,	0.084,	3.819,	0.258,	0.066,	0.040,	751.311,	1083.523,	1594.553,	222.347,	4.154,	0.945,	4.111,	0.931,	5.377,	0.936,	5.735,	0.991,	0.972,	0.426,	0.829,	0.381,	0.861,	0.406,	1.056,	0.467,	23.612,	194.337,	179.147,	192.040,	540.612,	189.086,	192.378,	180.209,	175.387
01/10/2019,	15:45:00,	25.426,	33.700,	1019.009,	117.727,	4.082,	0.337,	0.092,	3.816,	0.291,	0.078,	0.048,	750.782,	1084.210,	1595.266,	222.224,	4.060,	0.923,	3.945,	0.866,	5.272,	0.910,	5.610,	1.018,	0.985,	0.449,	0.833,	0.398,	0.878,	0.443,	1.045,	0.471,	23.478,	194.168,	178.494,	191.163,	542.314,	189.905,	192.572,	179.899,	174.849
01/10/2019,	16:00:00,	25.336,	33.700,	1017.826,	118.015,	4.088,	0.338,	0.097,	3.731,	0.260,	0.071,	0.050,	751.363,	1081.356,	1592.891,	222.241,	4.085,	0.921,	4.021,	0.877,	5.172,	0.935,	5.694,	1.025,	1.011,	0.437,	0.818,	0.342,	0.892,	0.421,	1.000,	0.447,	23.592,	194.970,	178.538,	191.142,	538.375,	188.828,	193.322,	180.799,	175.030
01/10/2019,	16:15:00,	24.306,	33.700,	1016.068,	118.186,	4.134,	0.343,	0.088,	3.909,	0.311,	0.067,	0.039,	750.717,	1079.620,	1589.954,	222.668,	4.027,	0.930,	4.092,	0.914,	5.410,	1.004,	5.771,	1.034,	0.929,	0.413,	0.834,	0.386,	0.930,	0.456,	0.974,	0.416,	23.551,	194.299,	178.677,	191.408,	536.286,	189.006,	193.619,	180.398,	175.148
01/10/2019,	16:30:00,	23.253,	33.700,	1017.796,	118.110,	4.020,	0.318,	0.090,	3.832,	0.286,	0.060,	0.041,	751.526,	1084.868,	1595.566,	222.984,	4.125,	0.941,	4.105,	0.871,	5.508,	1.025,	5.623,	1.029,	0.940,	0.397,	0.849,	0.380,	0.850,	0.422,	1.035,	0.420,	23.627,	195.950,	179.070,	190.938,	541.751,	188.923,	192.668,	179.998,	175.385
01/10/2019,	16:45:00,	25.612,	33.700,	1017.723,	118.198,	4.047,	0.313,	0.087,	3.826,	0.280,	0.070,	0.050,	750.538,	1080.281,	1590.883,	222.196,	3.976,	0.916,	4.074,	0.897,	5.431,	0.962,	5.721,	1.027,	0.990,	0.408,	0.778,	0.360,	0.899,	0.428,	1.013,	0.463,	23.721,	194.465,	177.949,	191.353,	538.094,	188.947,	192.828,	180.086,	175.424
01/10/2019,	17:00:00,	25.400,	33.700,	1018.101,	118.050,	4.078,	0.314,	0.078,	3.761,	0.291,	0.060,	0.038,	753.373,	1085.960,	1597.608,	223.745,	4.204,	0.942,	4.106,	0.856,	5.366,	0.942,	5.789,	1.007,	0.952,	0.439,	0.805,	0.372,	0.813,	0.370,	0.996,	0.446,	23.762,	194.433,	179.833,	192.461,	540.903,	189.523,	193.717,	181.280,	175.453
01/10/2019,	17:15:00,	24.977,	33.700,	1018.444,	117.926,	4.050,	0.322,	0.076,	3.796,	0.254,	0.063,	0.042,	752.925,	1083.565,	1595.450,	223.329,	3.889,	0.876,	4.039,	0.867,	5.491,	0.964,	5.768,	1.053,	0.906,	0.400,	0.780,	0.363,	0.894,	0.426,	1.043,	0.431,	23.238,	194.731,	178.534,	192.258,	540.308,	189.673,	193.543,	180.562,	175.120
01/10/2019,	17:30:00,	23.236,	33.700,	1017.513,	117.799,	4.106,	0.341,	0.091,	3.888,	0.271,	0.068,	0.048,	751.117,	1083.761,	1594.063,	222.777,	4.259,	0.942,	4.112,	0.911,	5.374,	0.950,	5.819,	1.046,	1.013,	0.459,	0.793,	0.349,	0.874,	0.447,	1.042,	0.462,	23.568,	195.214,	179.002,	191.212,	540.128,	189.224,	192.793,	179.861,	175.913